Location: �terpigny
(49.8910°N, 2.9249°E)
Time: 13:52:43
(UTC+00:00)

UWE-3 - Pass Details

Date: 03 July 2022
Orbit: 583 x 677 km, 97.7° (Epoch: 14 August)

Event Time Altitude Azimuth Distance (km) Brightness Sun altitude
Rises 02:52:15 0° 18° (NNE) 2,894 ? -7.0°
Reaches altitude 10° 02:54:30 10° 25° (NNE) 1,999 ? -6.7°
Maximum altitude 02:58:41 45° 98° (E) 873 ? -6.3°
Drops below altitude 10° 03:02:56 10° 172° (S) 2,039 ? -5.8°
Sets 03:05:15 0° 178° (S) 2,960 ? -5.6°
